Location: Unspecified
(0.0000°N, 0.0000°E)
Time: 22:40:03
(UTC+00:00)

Vanguard 2 - Pass Details

Date: 05 October 2020
Orbit: 554 x 2937 km, 32.9° (Epoch: 27 October)

Event Time Altitude Azimuth Distance (km) Brightness Sun altitude
Rises 17:25:37 0° 213° (SSW) 5,091 12.3 5.6°
Reaches altitude 10° 17:32:42 10° 184° (S) 4,724 11.7 3.9°
Maximum altitude 17:37:02 12° 165° (SSE) 4,885 11.5 2.8°
Drops below altitude 10° 17:41:49 10° 146° (SSE) 5,331 11.5 1.6°
Sets 17:51:37 0° 119° (ESE) 6,719 11.8 -0.8°
